Volver al catálogo

STARLINK-35255

ActivoComunicacionesSSO
NORAD 65602·PAYLOAD·🇺🇸 United States

Lanzado Sep 13, 2025 desde Cape Canaveral Space Force Station

Loading…

Próximos Pases (próximas 24 horas)

TLE

ActualizadoSource: CelesTrak SupGP

Época: Sep 15, 2026, 02:58 UTC

1 65602C 25207L   26258.12409722  .02402300  00000+0  10187+0 0  2589
2 65602  97.2841 320.8223 0001478  81.0696 152.7112 15.21985611    11

Sigue STARLINK-35255 en tiempo real con AllMySat

Download on the App Store